This demonstration page uses our WeatherBlox Daily Observations layout. Learn more.

Left ArrowRight Arrow

Hourly Observations for October 19, 2021

Temp ( °F °C ) Dew Point ( °F °C ) Humidity (%) Winds ( mph kmh ) Pressure ( in mb ) Visibility ( mi km ) Precip ( " mm )
12:53 am 00:53 Clear 65 18.3 49 9.4 56 56 SE 21 33 29.81 1010 10 16 N/A
1:53 am 01:53 Clear 64 17.8 50 10 60 60 SE 17 28 29.80 1009 10 16 N/A
2:53 am 02:53 Clear 63 17.2 49 9.4 60 60 SE 16 26 29.79 1009 10 16 N/A
3:53 am 03:53 Clear 61 16.1 49 9.4 65 65 SE 13 20 29.78 1009 10 16 N/A
4:53 am 04:53 Mostly Clear 60 15.6 50 10 70 70 SE 9 15 29.79 1009 10 16 N/A
5:53 am 05:53 Clear 59 15 50 10 72 72 SE 9 15 29.79 1009 10 16 N/A
6:53 am 06:53 Clear 58 14.4 50 10 75 75 SE 8 13 29.81 1009 10 16 N/A
7:53 am 07:53 Clear 56 13.3 50 10 81 81 SE 7 11 29.83 1010 10 16 N/A
8:53 am 08:53 Sunny 59 15 51 10.6 75 75 SSE 7 11 29.85 1011 10 16 N/A
9:53 am 09:53 Sunny 65 18.3 52 11.1 63 63 SSE 8 13 29.87 1012 10 16 N/A
10:53 am 10:53 Sunny 70 21.1 51 10.6 51 51 S 5 7 29.88 1012 10 16 N/A
11:53 am 11:53 Sunny 76 24.4 48 8.9 37 37 W 5 7 29.87 1012 10 16 N/A
12:53 pm 12:53 Sunny 82 27.8 45 7.2 27 27 W 13 20 29.84 1011 10 16 N/A
1:53 pm 13:53 Sunny 83 28.3 43 6.1 24 24 WSW 10 17 29.82 1010 10 16 N/A
2:53 pm 14:53 Sunny 86 30 41 5 20 20 SW 8 13 29.78 1009 10 16 N/A
3:53 pm 15:53 Sunny 89 31.7 34 1.1 14 14 WSW 15 24 29.76 1008 10 16 N/A
4:53 pm 16:53 Sunny 90 32.2 26 -3.3 10 10 SW 16 26 29.75 1008 10 16 N/A
5:53 pm 17:53 Sunny 88 31.1 28 -2.2 11 11 WSW 15 24 29.75 1008 10 16 N/A
6:53 pm 18:53 Sunny 86 30 27 -2.8 12 12 W 9 15 29.77 1008 10 16 N/A
7:53 pm 19:53 Clear 78 25.6 27 -2.8 15 15 W 6 9 29.80 1009 10 16 N/A
8:53 pm 20:53 Clear 76 24.4 51 10.6 42 42 SSE 8 13 29.85 1011 10 16 N/A
9:53 pm 21:53 Clear 70 21.1 52 11.1 53 53 SSE 6 9 29.88 1012 10 16 N/A
10:53 pm 22:53 Clear 68 20 54 12.2 61 61 SE 8 13 29.89 1012 10 16 N/A
11:53 pm 23:53 Clear 67 19.4 55 12.8 66 66 SE 12 19 29.89 1012 10 16 N/A

Powered by AerisWeather